Wentworth, New Hampshire
Current Conditions -  °F | °C
As of 9:55 PM on Sunday 23 Nov 2014 (Local Time) from K1P1 Reporting Station
Overcast Overcast  
Wind Chill: 36°   Ceiling: 8000
Heat Index: 36°   Visibility: 7mi
Dew Point: 36°   Wind: 0mph
Humidity: 100%   Direction: NA
Pressure: 30.1"   Gusts: NA
Location:  43.87°N, 71.91°W
Report Text: K1P1 240255Z AUTO 00000KT 7SM SCT050 BKN080 OVC090 02/02 A3010 RMK AO2 T00230023
Loading
Personal Weather Stations






























Interactive Weather Map New forecast layout! Learn more

10-Day Weather Forecast

Advertisements
Track Severe Weather on mobile